Whitefield, NH

1:12 AM EDT on June 28, 2017 (GMT -0400)
Mount Washington Regional

Weather History for KHIE - December, 2012

Change the Weather History Date:

Friday, December 14, 2012

  Actual Average Record
Temperature  
Mean Temperature 26 °F -  
Max Temperature 37 °F 30 °F 50 °F (2006)
Min Temperature 14 °F 11 °F -20 °F (2005)
Degree Days  
Heating Degree Days 40    
Moisture  
Dew Point 21 °F    
Average Humidity 71    
Maximum Humidity 89    
Minimum Humidity 48    
Precipitation  
Precipitation 0.00 in - - ()
Sea Level Pressure  
Sea Level Pressure 30.13 in    
Wind  
Wind Speed 2 mph (West)    
Max Wind Speed 10 mph    
Max Gust Speed 17 mph    
Visibility 10 miles    
Events      
Averages and records for this station are not official NWS values.
T = Trace of Precipitation, MM = Missing Value Source: NWS Daily Summary

Daily Weather History Graph

Daily Weather History Graph

Search for Another Location

Airport or City:

Trip Planner

Search our weather history database for the weather conditions in past years. The results will help you decide how hot, cold, wet, or windy it might be!

Date:

Astronomy

Dec. 14, 2012 Rise Set
Actual Time 7:14 AM EST 4:07 PM EST
Civil Twilight 6:41 AM EST 4:40 PM EST
Nautical Twilight 6:04 AM EST 5:17 PM EST
Astronomical Twilight 5:29 AM EST 5:52 PM EST
Moon 8:15 AM EST (12/14) 5:58 PM EST (12/14)
Length of Visible Light 9h 59m
Length of Day
8h 52m
Waxing Crescent, 3% of the Moon is Illuminated
Dec 14
Waxing Crescent
Dec 20
First Quarter
Dec 28
Full
Jan 4
Last Quarter
Jan 11
New

Hourly Weather History & Observations

Time (EST) Temp. Windchill Dew Point Humidity Pressure Visibility Wind Dir Wind Speed Gust Speed Precip Events Conditions
1:52 AM 21.9 °F - 19.0 °F 89% 30.23 in 10.0 mi Calm Calm - N/A   Clear
2:52 AM 21.9 °F - 18.0 °F 85% 30.21 in 10.0 mi Calm Calm - N/A   Clear
3:52 AM 19.9 °F - 16.0 °F 85% 30.19 in 10.0 mi Calm Calm - N/A   Clear
4:52 AM 19.0 °F - 15.1 °F 85% 30.18 in 10.0 mi Calm Calm - N/A   Clear
5:52 AM 16.0 °F - 12.9 °F 88% 30.19 in 10.0 mi Calm Calm - N/A   Clear
6:52 AM 14.0 °F - 10.9 °F 88% 30.17 in 10.0 mi Calm Calm - N/A   Clear
7:52 AM 15.1 °F - 10.9 °F 84% 30.17 in 10.0 mi Calm Calm - N/A   Clear
8:52 AM 21.9 °F - 19.0 °F 89% 30.13 in 10.0 mi Calm Calm - N/A   Overcast
9:52 AM 28.0 °F - 23.0 °F 81% 30.11 in 10.0 mi Calm Calm - N/A   Overcast
10:52 AM 33.1 °F - 26.1 °F 75% 30.10 in 10.0 mi Calm Calm - N/A   Mostly Cloudy
11:52 AM 37.0 °F 32.4 °F 21.9 °F 54% 30.07 in 10.0 mi Variable 5.8 mph - N/A   Mostly Cloudy
12:52 PM 37.9 °F 33.5 °F 19.9 °F 48% 30.05 in 10.0 mi SW 5.8 mph - N/A   Overcast
1:52 PM 37.9 °F 34.4 °F 21.0 °F 51% 30.05 in 10.0 mi SW 4.6 mph - N/A   Overcast
2:52 PM 37.9 °F 34.4 °F 21.9 °F 53% 30.06 in 10.0 mi SW 4.6 mph - N/A   Overcast
3:52 PM 37.0 °F - 23.0 °F 57% 30.08 in 10.0 mi Calm Calm - N/A   Overcast
4:49 PM 37.4 °F 33.8 °F 26.6 °F 65% 30.05 in 10.0 mi Variable 4.6 mph - N/A   Overcast
4:52 PM 37.0 °F 33.3 °F 26.1 °F 65% 30.11 in 10.0 mi West 4.6 mph - N/A   Overcast
5:52 PM 37.0 °F 30.4 °F 27.0 °F 67% 30.12 in 10.0 mi West 9.2 mph - N/A   Overcast
6:52 PM 37.0 °F 29.8 °F 27.0 °F 67% 30.14 in 10.0 mi WSW 10.4 mph 17.3 mph N/A   Overcast
7:52 PM 35.1 °F 27.9 °F 27.0 °F 72% 30.14 in 10.0 mi WNW 9.2 mph - N/A   Overcast
8:52 PM 35.1 °F 30.1 °F 26.1 °F 70% 30.15 in 10.0 mi West 5.8 mph - N/A   Overcast
9:52 PM 35.1 °F 28.6 °F 25.0 °F 67% 30.14 in 10.0 mi West 8.1 mph - N/A   Overcast
10:52 PM 35.1 °F 27.9 °F 23.0 °F 61% 30.16 in 10.0 mi WNW 9.2 mph - N/A   Overcast
11:24 PM 33.8 °F 28.6 °F 24.8 °F 70% 30.12 in 10.0 mi WNW 5.8 mph - N/A   Overcast
11:52 PM 34.0 °F 29.8 °F 24.1 °F 67% 30.18 in 10.0 mi Variable 4.6 mph - N/A   Overcast